Weather History for Palmer, AK

Change the Weather History Date:

Saturday, October 13, 2012

  Actual Average Record
Temperature  
Mean Temperature 30 °F -  
Max Temperature 34 °F 44 °F 56 °F (1969)
Min Temperature 27 °F 29 °F 14 °F (1997)
Degree Days  
Heating Degree Days 34    
Moisture  
Dew Point 26 °F    
Average Humidity 82    
Maximum Humidity 100    
Minimum Humidity 37    
Precipitation  
Precipitation 0.01 in - - ()
Sea Level Pressure  
Sea Level Pressure 29.16 in    
Wind  
Wind Speed 3 mph (ENE)    
Max Wind Speed 17 mph    
Max Gust Speed 30 mph    
Visibility 8 miles    
Events Snow    
Averages and records for this station are not official NWS values.
T = Trace of Precipitation, MM = Missing Value Source: NWS Daily Summary

Daily Weather History Graph

Daily Weather History Graph

Search for Another Location

Airport:

Trip Planner

Search our weather history database for the weather conditions in past years. The results will help you decide how hot, cold, wet, or windy it might be!

Date:

Astronomy

Oct. 13, 2012 Rise Set
Actual Time 8:36 AM AKDT 6:47 PM AKDT
Civil Twilight 7:51 AM AKDT 7:31 PM AKDT
Nautical Twilight 7:01 AM AKDT 8:22 PM AKDT
Astronomical Twilight 6:09 AM AKDT 9:13 PM AKDT
Moon 6:15 AM AKDT (10/13) 5:49 PM AKDT (10/13)
Length of Visible Light 11h 39m
Length of Day
10h 11m
Waning Crescent, 4% of the Moon is Illuminated
Oct 13
Waning Crescent
Oct 15
New
Oct 21
First Quarter
Oct 29
Full
Nov 6
Last Quarter

Hourly Weather History & Observations

Time (AKDT) Temp. Windchill Dew Point Humidity Pressure Visibility Wind Dir Wind Speed Gust Speed Precip Events Conditions
12:53 AM 27.0 °F - 24.1 °F 89% 29.12 in 10.0 mi Calm Calm - N/A   Clear
1:53 AM 32.0 °F 26.4 °F 19.9 °F 61% 29.11 in 10.0 mi Variable 5.8 mph - N/A   Clear
2:53 AM 33.1 °F 27.7 °F 18.0 °F 54% 29.11 in 10.0 mi Variable 5.8 mph - N/A   Clear
3:53 AM 32.0 °F 24.8 °F 19.9 °F 61% 29.10 in 10.0 mi ENE 8.1 mph 16.1 mph N/A   Clear
4:53 AM 34.0 °F 23.4 °F 10.9 °F 38% 29.09 in 10.0 mi NE 17.3 mph 23.0 mph N/A   Clear
5:53 AM 34.0 °F 26.0 °F 10.0 °F 37% 29.09 in 10.0 mi ENE 10.4 mph 29.9 mph N/A   Clear
6:53 AM 33.1 °F 24.4 °F 10.9 °F 40% 29.08 in 10.0 mi NE 11.5 mph 24.2 mph N/A   Scattered Clouds
7:53 AM 34.0 °F 26.6 °F 12.0 °F 40% 29.09 in 10.0 mi NE 9.2 mph - N/A   Overcast
8:53 AM 28.9 °F - 25.0 °F 85% 29.10 in 10.0 mi Calm Calm - N/A   Overcast
9:53 AM 30.0 °F - 26.1 °F 85% 29.12 in 10.0 mi Calm Calm - N/A   Overcast
10:53 AM 30.9 °F 26.2 °F 25.0 °F 79% 29.14 in 10.0 mi ESE 4.6 mph - N/A   Overcast
11:53 AM 32.0 °F - 24.1 °F 73% 29.15 in 10.0 mi Calm Calm - 0.00 in   Overcast
12:46 PM 33.8 °F - 24.8 °F 70% 29.14 in 10.0 mi Calm Calm - N/A   Overcast
12:53 PM 32.0 °F - 26.1 °F 79% 29.16 in 9.0 mi Calm Calm - N/A   Overcast
1:05 PM 32.0 °F 27.5 °F 26.6 °F 80% 29.15 in 6.0 mi South 4.6 mph - 0.00 in Snow Light Snow
1:16 PM 32.0 °F - 26.6 °F 80% 29.15 in 3.0 mi Calm Calm - 0.00 in Snow Light Snow
1:39 PM 30.2 °F - 26.6 °F 86% 29.15 in 2.0 mi Calm Calm - 0.00 in Snow Light Snow
1:53 PM 30.9 °F - 28.0 °F 89% 29.16 in 2.0 mi Calm Calm - 0.00 in Snow Light Snow
2:34 PM 32.0 °F - 30.2 °F 93% 29.17 in 2.0 mi Calm Calm - 0.00 in Snow Light Snow
2:53 PM 32.0 °F - 30.0 °F 92% 29.18 in 2.0 mi Calm Calm - 0.00 in Snow Light Snow
3:20 PM 32.0 °F - 30.2 °F 93% 29.17 in 4.0 mi Calm Calm - 0.00 in Snow Light Snow
3:53 PM 33.1 °F - 30.9 °F 92% 29.20 in 4.0 mi Calm Calm - 0.01 in Snow Light Snow
3:57 PM 33.8 °F 30.8 °F 30.2 °F 87% 29.18 in 5.0 mi South 3.5 mph - 0.00 in Snow Light Snow
4:53 PM 34.0 °F - 30.9 °F 89% 29.20 in 10.0 mi Calm Calm - 0.00 in   Overcast
5:53 PM 33.1 °F - 30.9 °F 92% 29.20 in 10.0 mi Calm Calm - N/A   Overcast
6:36 PM 32.0 °F 28.7 °F 30.2 °F 93% 29.19 in 10.0 mi SSW 3.5 mph - N/A   Overcast
6:53 PM 30.9 °F - 30.0 °F 96% 29.21 in 10.0 mi Calm Calm - N/A   Overcast
7:13 PM 30.2 °F - 30.2 °F 100% 29.19 in 10.0 mi Calm Calm - N/A   Overcast
7:21 PM 30.2 °F - 28.4 °F 93% 29.20 in 10.0 mi Calm Calm - N/A   Overcast
7:29 PM 30.2 °F - 28.4 °F 93% 29.20 in 10.0 mi Calm Calm - N/A   Overcast
7:37 PM 30.2 °F - 30.2 °F 100% 29.20 in 10.0 mi Calm Calm - N/A   Overcast
7:53 PM 30.9 °F - 30.0 °F 96% 29.21 in 9.0 mi Calm Calm - N/A   Overcast
8:39 PM 30.2 °F - 28.4 °F 93% 29.21 in 10.0 mi Calm Calm - N/A   Overcast
9:31 PM 30.2 °F - 28.4 °F 93% 29.21 in 9.0 mi Calm Calm - N/A   Overcast
9:53 PM 30.9 °F - 28.9 °F 92% 29.22 in 9.0 mi Calm Calm - N/A   Overcast
10:13 PM 30.2 °F - 28.4 °F 93% 29.21 in 8.0 mi Calm Calm - N/A   Scattered Clouds
10:50 PM 28.4 °F 24.6 °F 28.4 °F 100% 29.21 in 5.0 mi NNE 3.5 mph - N/A   Mostly Cloudy
10:53 PM 28.9 °F 25.2 °F 28.0 °F 96% 29.22 in 6.0 mi NNE 3.5 mph - N/A   Mostly Cloudy
11:53 PM 30.0 °F - 28.0 °F 92% 29.21 in 8.0 mi Calm Calm - N/A   Mostly Cloudy